Wind_Speed
27 24 21 18 16 16 15 13 11 9 6 5 4 4 6 10 11 13 13 13 14 14 16 17 17 19 21 23 24 25 27 27 32 49 44 47 48 47 46 45 44 43 41
27 24 22 20 20 17 16 15 13 10 8 6 4 5 8 9 10 12 14 15 16 17 17 18 19 21 22 24 25 28 30 31 32 43 49 49 48 46 44 43 42 40 39
28 25 24 23 21 19 18 17 15 13 11 8 6 7 7 9 12 14 15 16 17 18 19 20 21 22 23 24 27 29 31 34 35 40 50 47 47 45 44 39 38 39 38
30 27 25 24 22 22 20 19 17 15 12 10 9 9 9 10 12 13 14 17 19 21 21 22 22 23 25 27 29 31 34 35 37 41 45 47 46 44 39 39 45 41 42
32 29 27 25 25 24 23 21 19 16 15 14 12 12 12 12 13 14 15 17 19 22 23 24 24 25 26 28 30 31 32 35 37 39 42 43 44 42 38 39 40 44 45
32 29 28 28 28 27 25 24 22 21 19 18 17 16 16 16 16 16 16 18 20 23 25 25 26 26 27 28 29 30 28 28 33 34 38 38 44 43 44 41 44 44 49
31 30 30 29 30 29 27 26 26 24 22 22 21 20 20 20 20 20 21 21 23 25 26 27 27 28 29 29 30 29 31 32 26 30 36 38 43 41 42 46 46 46 49
31 30 31 31 31 29 29 28 28 27 25 24 24 25 25 24 24 23 24 24 26 27 28 28 28 29 29 30 30 32 33 35 36 34 34 38 39 40 41 42 42 46 45
29 29 30 31 30 29 29 29 29 28 27 27 27 28 28 26 26 26 27 28 28 29 29 29 30 30 28 29 25 30 35 39 35 34 34 31 33 35 34 35 37 39 41
26 24 25 27 29 28 28 28 28 29 28 29 29 29 28 28 27 28 29 30 31 30 31 31 31 29 28 21 22 29 37 35 36 37 36 35 33 32 30 25 26 31 33
19 20 21 22 23 24 25 27 28 29 30 31 30 29 29 29 29 29 30 31 31 31 32 32 31 29 27 20 20 28 30 28 33 33 34 33 32 30 28 26 25 29 35
17 18 17 17 19 21 23 25 27 30 31 31 31 30 30 31 31 31 31 30 30 33 33 32 31 28 23 23 24 30 26 26 29 30 31 31 31 32 32 30 29 27 27
19 19 19 20 22 23 25 26 28 30 32 32 33 33 33 31 32 31 31 30 30 32 33 32 29 22 26 31 31 27 26 25 26 27 28 28 29 31 33 32 29 28 28
23 22 22 24 26 27 28 29 30 32 33 35 36 36 33 31 32 31 31 31 31 32 31 31 30 30 29 30 31 27 24 23 24 25 26 27 28 29 31 32 31 30 31
26 28 27 28 29 29 29 30 31 32 32 33 33 32 32 33 31 31 33 35 33 31 30 33 33 32 33 34 30 25 23 22 22 23 24 26 28 30 31 30 29 30 31
25 30 31 30 29 29 29 30 32 33 33 32 32 32 31 31 32 33 32 32 28 24 26 35 37 36 36 35 30 26 22 22 22 24 24 25 27 29 31 31 29 29 32
25 26 30 32 32 31 32 32 30 28 28 27 26 27 29 30 26 24 25 26 27 27 34 38 38 37 36 33 28 25 24 22 23 24 24 23 25 27 29 31 31 29 31
24 26 26 27 28 28 26 25 25 26 25 26 28 29 31 32 33 32 28 26 30 32 41 40 38 37 35 30 27 25 24 23 23 23 23 21 22 24 27 29 29 29 31
22 23 23 22 21 21 21 21 22 24 26 28 29 30 31 33 34 33 28 28 33 36 39 40 39 36 34 28 25 24 24 24 23 22 21 20 20 23 25 26 27 27 30
19 19 18 18 17 18 19 21 22 24 26 28 31 32 33 36 37 35 31 31 33 36 39 41 39 35 31 26 24 24 24 22 21 19 19 17 17 20 23 24 25 28 29
16 15 15 16 17 18 19 20 22 25 27 29 30 30 29 27 32 35 34 31 30 31 30 31 31 29 27 24 23 23 23 21 19 18 17 15 16 19 19 21 23 26 27
15 14 14 15 16 17 18 19 21 23 24 25 25 25 24 25 26 27 29 30 28 26 26 26 25 25 23 22 22 23 22 20 16 17 16 14 14 16 17 19 21 24 25
13 13 13 14 15 16 17 17 18 19 19 21 22 23 23 22 22 23 23 23 24 29 31 27 25 23 21 21 21 22 21 18 15 17 15 14 12 13 14 16 19 22 24
11 11 12 13 14 15 16 16 17 17 18 19 19 19 20 20 20 20 20 21 21 20 20 22 22 22 22 20 20 20 20 18 16 15 15 15 13 12 12 12 16 18 21
10 11 12 13 14 15 15 16 16 17 17 18 19 19 19 19 19 19 19 19 19 19 19 20 21 21 21 19 20 19 19 19 18 15 15 16 15 13 10 11 13 16 18
11 11 12 12 12 13 14 15 16 17 17 18 19 19 19 20 20 20 19 20 20 20 20 20 20 19 19 20 19 19 19 19 18 16 16 17 17 14 11 12 12 14 17
Wind_Direction
195 194 194 195 199 202 206 209 210 211 218 234 260 315 336 335 333 330 328 328 326 327 326 327 328 327 328 328 328 329 327 320 310 322 319 319 318 318 316 314 313 312 309
200 199 200 202 205 208 211 213 214 221 226 240 271 306 318 321 328 328 328 324 325 323 319 321 323 322 323 323 324 325 325 322 317 318 321 321 319 320 321 321 319 316 313
204 204 207 210 213 215 217 219 222 225 227 236 260 288 304 321 324 324 322 321 322 315 317 319 318 317 318 319 320 322 320 320 320 317 317 318 319 323 326 327 329 324 319
209 211 215 220 223 223 222 222 226 226 233 243 257 272 298 305 309 312 317 323 319 313 313 313 313 312 314 316 316 318 319 319 319 318 317 319 322 325 327 325 321 321 322
213 216 223 227 227 226 227 227 229 234 236 242 252 265 277 284 292 301 313 319 317 312 311 309 308 308 310 312 315 316 317 318 319 318 317 318 318 321 315 318 313 317 318
219 224 229 230 230 232 233 233 235 235 239 245 256 263 269 276 282 291 300 306 310 311 310 306 305 305 307 309 310 314 315 316 313 312 314 306 310 312 313 309 310 308 305
226 230 233 234 234 236 238 237 236 240 246 252 260 266 271 272 277 285 293 301 305 307 307 305 304 305 306 306 309 312 313 319 305 302 301 308 309 314 312 309 306 303 300
231 235 234 236 237 238 240 240 240 244 251 259 264 269 271 274 276 281 289 296 300 305 305 304 303 303 303 305 309 315 313 309 312 307 300 299 300 304 302 300 299 295 295
235 239 239 239 240 241 242 242 244 248 256 264 269 271 273 273 274 280 286 292 297 303 303 302 301 301 302 306 308 304 305 309 313 310 310 307 305 303 299 299 298 296 300
236 242 243 241 242 244 247 248 251 256 262 264 268 272 274 276 275 278 283 288 294 299 300 300 299 301 301 294 299 298 304 315 314 317 317 316 317 316 313 303 298 301 305
241 241 240 237 239 243 247 250 254 257 260 263 267 272 276 277 275 276 279 285 292 295 297 297 295 295 295 290 284 298 308 311 305 313 315 320 325 326 325 318 304 293 294
236 235 229 232 237 242 247 252 255 257 258 260 264 270 275 277 276 275 279 283 288 291 293 293 293 293 293 279 294 307 306 303 310 312 317 325 329 332 331 325 318 310 303
234 225 234 239 244 247 249 255 257 257 258 262 264 268 273 276 276 278 280 281 285 289 291 291 291 281 278 285 296 305 304 307 309 314 320 326 330 330 328 329 327 323 317
229 235 241 244 247 248 252 257 259 260 261 262 264 267 274 278 278 280 281 283 285 286 288 285 280 281 284 294 301 302 303 307 311 316 319 325 327 328 333 334 331 332 328
243 242 245 248 251 253 256 260 264 265 264 265 267 269 271 275 282 281 282 285 287 286 283 283 285 286 289 294 298 298 302 306 309 313 317 322 325 330 333 335 334 334 333
253 249 249 252 254 257 260 264 265 264 264 265 267 271 274 279 280 280 282 285 282 275 273 274 277 281 287 293 296 296 299 303 308 311 314 318 324 328 331 336 337 336 332
263 261 257 257 258 260 263 265 262 261 265 267 271 276 280 284 282 278 271 268 269 265 259 268 274 279 285 289 290 292 297 302 306 309 312 316 321 325 332 336 337 337 334
267 267 264 260 260 261 260 261 264 267 270 274 279 283 284 283 284 283 278 275 264 256 261 269 273 278 282 285 284 288 293 298 302 306 309 314 320 327 332 336 337 337 337
263 261 260 258 258 260 263 265 269 274 279 282 284 285 288 288 287 286 281 266 266 266 268 270 273 277 277 279 280 285 290 297 301 304 306 312 321 328 331 336 335 341 339
257 254 253 255 258 261 267 273 277 281 285 290 293 295 297 297 295 293 286 277 268 262 261 265 270 273 273 276 279 284 289 294 298 300 302 309 318 328 332 334 339 344 341
250 252 259 264 268 273 277 282 288 293 295 296 298 300 301 298 296 296 295 292 284 276 270 267 267 265 269 273 278 283 287 292 296 296 298 305 316 328 331 333 342 344 343
256 261 265 269 275 282 287 290 293 296 301 304 308 311 311 304 299 293 289 287 287 289 284 283 272 266 269 274 279 282 285 288 294 290 293 298 312 326 330 336 346 344 346
266 270 275 280 284 288 292 296 301 307 313 319 320 318 315 313 312 307 302 292 281 271 277 280 274 272 274 276 277 280 283 286 288 285 290 291 304 324 332 341 348 347 350
269 275 281 287 293 299 306 313 317 320 322 321 319 318 316 313 310 309 305 300 293 287 280 276 276 278 278 276 276 277 279 282 282 281 282 281 289 312 322 337 343 349 351
278 286 293 300 306 311 315 316 317 316 316 316 317 317 317 314 312 309 304 300 295 291 287 283 281 280 277 276 275 275 275 276 277 275 273 274 276 290 298 317 328 339 348
289 293 299 304 307 309 311 312 313 313 315 316 315 316 316 315 313 309 308 304 299 295 290 285 282 279 279 277 276 275 274 273 272 270 271 270 269 275 284 289 309 327 336
Height
1533 1536 1538 1541 1544 1547 1550 1554 1557 1559 1559 1562 1563 1563 1563 1566 1566 1568 1566 1563 1565 1563 1563 1560 1557 1555 1555 1554 1550 1548 1545 1542 1535 1523 1521 1514 1508 1503 1500 1498 1493 1487 1484
1530 1533 1536 1538 1540 1544 1547 1551 1552 1555 1557 1560 1560 1560 1561 1562 1561 1562 1562 1563 1559 1559 1559 1556 1552 1550 1549 1548 1545 1542 1539 1535 1529 1518 1511 1507 1502 1496 1492 1488 1484 1480 1475
1527 1529 1533 1535 1537 1539 1542 1547 1549 1550 1551 1553 1554 1556 1556 1558 1559 1559 1558 1558 1554 1558 1554 1551 1549 1546 1544 1542 1540 1536 1532 1527 1521 1515 1504 1501 1496 1491 1486 1481 1477 1472 1469
1523 1525 1528 1531 1533 1536 1538 1541 1544 1545 1549 1550 1551 1554 1553 1553 1554 1556 1554 1551 1552 1553 1549 1546 1544 1541 1539 1536 1533 1530 1525 1519 1514 1508 1500 1494 1490 1486 1482 1477 1469 1467 1461
1515 1520 1523 1527 1530 1532 1535 1538 1541 1543 1545 1546 1547 1548 1548 1549 1549 1550 1548 1547 1547 1548 1544 1542 1539 1536 1533 1530 1526 1522 1518 1512 1507 1502 1495 1490 1485 1481 1478 1474 1466 1459 1454
1511 1515 1518 1521 1524 1527 1529 1532 1534 1537 1538 1540 1542 1543 1543 1545 1545 1544 1543 1542 1542 1541 1538 1535 1533 1530 1527 1523 1520 1516 1512 1508 1503 1499 1492 1487 1481 1478 1472 1468 1461 1453 1442
1505 1509 1512 1515 1518 1520 1523 1525 1528 1531 1533 1535 1536 1536 1538 1538 1539 1538 1539 1536 1535 1534 1531 1528 1526 1523 1519 1515 1512 1509 1506 1502 1501 1497 1489 1483 1476 1472 1467 1460 1456 1449 1440
1499 1502 1506 1508 1511 1514 1517 1520 1522 1525 1527 1529 1530 1531 1532 1532 1533 1531 1531 1530 1529 1527 1524 1521 1518 1516 1513 1509 1506 1501 1498 1495 1492 1487 1482 1476 1472 1467 1463 1457 1449 1441 1436
1492 1495 1499 1502 1506 1509 1511 1513 1516 1519 1520 1522 1524 1524 1524 1524 1523 1524 1524 1522 1521 1519 1516 1513 1511 1508 1505 1502 1500 1496 1491 1487 1484 1478 1473 1469 1465 1459 1454 1447 1440 1434 1427
1485 1489 1493 1496 1498 1501 1506 1508 1510 1512 1513 1515 1516 1516 1516 1518 1517 1517 1516 1514 1513 1511 1509 1506 1504 1501 1498 1498 1495 1490 1484 1479 1473 1468 1465 1460 1456 1450 1445 1441 1436 1430 1425
1482 1484 1487 1489 1492 1495 1498 1501 1504 1505 1506 1507 1507 1507 1508 1508 1509 1508 1507 1505 1505 1503 1500 1497 1496 1494 1491 1491 1489 1483 1478 1474 1468 1464 1458 1453 1447 1442 1438 1434 1430 1426 1419
1477 1479 1482 1485 1486 1488 1491 1494 1496 1498 1499 1498 1498 1498 1498 1499 1500 1500 1499 1498 1497 1494 1492 1489 1487 1486 1484 1482 1480 1476 1472 1467 1463 1458 1452 1447 1440 1435 1431 1427 1422 1418 1414
1473 1475 1477 1479 1482 1483 1484 1486 1488 1490 1490 1490 1490 1490 1490 1491 1490 1491 1490 1490 1489 1486 1484 1481 1479 1479 1476 1474 1472 1469 1465 1461 1456 1452 1447 1442 1437 1431 1426 1420 1416 1411 1406
1467 1470 1472 1474 1475 1477 1478 1479 1481 1481 1481 1480 1480 1481 1481 1482 1481 1482 1481 1480 1480 1477 1475 1473 1471 1469 1468 1465 1462 1460 1458 1455 1450 1446 1442 1437 1432 1427 1422 1416 1409 1404 1398
1462 1465 1466 1467 1469 1470 1471 1472 1473 1473 1473 1473 1473 1473 1473 1472 1473 1473 1472 1471 1470 1469 1468 1463 1461 1461 1460 1459 1455 1453 1451 1448 1445 1442 1437 1433 1428 1422 1417 1412 1406 1400 1394
1456 1457 1458 1460 1461 1462 1463 1464 1463 1463 1464 1464 1464 1464 1465 1465 1464 1464 1464 1463 1462 1462 1460 1456 1455 1454 1452 1451 1449 1446 1444 1441 1439 1436 1432 1428 1423 1418 1411 1406 1402 1396 1391
1448 1449 1450 1451 1453 1454 1455 1454 1454 1455 1455 1456 1457 1457 1457 1457 1456 1456 1456 1455 1453 1454 1448 1445 1445 1445 1444 1443 1442 1440 1438 1435 1433 1430 1426 1423 1418 1413 1408 1402 1397 1392 1387
1442 1441 1442 1444 1445 1446 1446 1447 1447 1448 1449 1450 1450 1449 1449 1448 1447 1446 1445 1444 1443 1441 1436 1436 1436 1436 1435 1434 1434 1433 1431 1429 1427 1423 1420 1417 1413 1408 1403 1398 1393 1388 1383
1435 1435 1436 1437 1438 1439 1440 1441 1442 1442 1442 1441 1441 1440 1439 1437 1435 1434 1434 1433 1431 1430 1428 1428 1429 1428 1427 1426 1426 1425 1424 1422 1419 1417 1414 1411 1408 1404 1399 1395 1390 1385 1381
1429 1429 1431 1431 1432 1434 1435 1436 1436 1435 1434 1432 1431 1429 1427 1425 1422 1421 1421 1420 1419 1419 1419 1419 1419 1418 1419 1418 1418 1417 1416 1415 1413 1410 1408 1406 1403 1400 1396 1391 1387 1382 1377
1425 1426 1426 1427 1428 1429 1429 1429 1428 1427 1426 1424 1422 1420 1419 1416 1412 1409 1408 1408 1408 1408 1409 1409 1409 1409 1410 1410 1410 1409 1408 1408 1406 1404 1402 1400 1398 1395 1393 1389 1384 1380 1375
1420 1421 1421 1422 1423 1423 1423 1422 1421 1420 1418 1416 1414 1411 1409 1407 1405 1403 1401 1400 1399 1399 1400 1400 1400 1401 1402 1402 1402 1401 1401 1400 1400 1398 1396 1395 1394 1392 1389 1385 1381 1377 1372
1416 1417 1417 1418 1418 1418 1417 1416 1414 1412 1410 1408 1406 1404 1402 1399 1397 1395 1393 1392 1392 1393 1393 1393 1393 1394 1394 1394 1394 1394 1394 1394 1393 1391 1390 1390 1389 1387 1385 1382 1378 1375 1370
1412 1413 1413 1413 1413 1412 1410 1409 1407 1404 1402 1401 1400 1399 1396 1394 1392 1389 1387 1386 1386 1386 1386 1386 1386 1386 1387 1387 1387 1387 1387 1387 1386 1386 1384 1384 1384 1383 1381 1379 1376 1373 1369
1408 1408 1408 1407 1407 1405 1404 1403 1401 1400 1398 1397 1395 1393 1391 1389 1386 1385 1383 1382 1381 1380 1380 1380 1379 1379 1380 1379 1380 1380 1380 1379 1379 1379 1379 1378 1378 1378 1376 1374 1373 1371 1367
1404 1403 1403 1402 1401 1401 1399 1398 1397 1395 1394 1392 1389 1387 1385 1383 1382 1380 1378 1377 1375 1374 1374 1373 1373 1373 1373 1373 1373 1373 1373 1372 1373 1373 1372 1372 1372 1372 1371 1370 1369 1368 1365